DECAYED

STARLINK-1891, 47174 (Decayed)

Orbit data source: Space-Track

STARLINK-1891, 47174 was a payload satellite owned by SpaceX/Seattle (US) in LEO that was launched on Wed, 25 Nov 2020 UTC via an FALCON 9 launch vehicle from the Air Force Eastern Test Range (AFETR). Payload-class satellites include a variety of spacecraft equipped with specific instruments for various scientific and technological missions. These include communications satellites like Starlink; space stations such as the ISS; scientific satellites like the Hubble; Earth observation satellites from companies like Planet Labs, Umbra, and HawkEye 360; GPS; miniature CubeSats for education and research; and military/defense satellites.

Not visible in the next 10 days
Identifier
47174, 2020-088BE
Orbit
Decayed
Country
Flag of USUS
Related business
Manufacturer
SpaceX/Seattle
Mission
Decayed Commercial Communications
Bus & Motor
STARLINK, Unknown motor
Mass
260 kg wet, ~248 kg dry
Launch date (UTC)
2020-11-25 (6 years ago)
Launch vehicle
FALCON 9
Launch site
Air Force Eastern Test Range (AFETR)
Object type
Payload
Rocket body
Debris
Shape & HBR
Box + 1 Pan, 10.1 m
Radar Cross Section
13.562 m², Large (>1 m²)

Expand to show TLE details & history
Last TLE update: 1 year ago

TLE from 1 year ago
0 STARLINK-1891
1 47174U 20088BE  25009.16363856  .21641954  12530-4  44567-3 0  9991
2 47174  53.0278  21.4494 0002513 231.9692 173.7759 16.46962307228507
Epoch: 2025-01-09T03:55Z
TLE epoch observation values (Epoch: 2025-01-09T03:55:38.371Z)
Latitude
35.02633°
Longitude
-114.76628°
Altitude
151.539 km
Speed
7.819 km/s
True Right ascension
03h 32m 21s
True Declination
34° 50' 59"
Sunlit
Object was in full shadow at epoch
Visualization orbit readout
Latitude
Unknown
Longitude
Unknown
Altitude
Unknown
Speed
Unknown
Apparent Right ascension
Unknown
Apparent Declination
Unknown
Sunlit
N/A
Visualization observer readout
Local Sidereal Time
21:28:06
Azimuth
Unknown
Elevation
Unknown
Doppler factor
Unknown
Orbital elements
Apogee altitude
149.278 km
Perigee altitude
145.998 km
Semi-major axis
6,525.775 km
Eccentricity
0.00025
Inclination
53.0278°
RAAN
21.4494°
Arg. of periapsis
231.9692°
True anomaly
173.77902°
Mean anomaly
173.7759°
Eccentric anomaly
173.77746°
Mean motion
4.11713 °/min
Orbital period
87.44 mins
BSTAR
0.00044567
Loading maneuver chart data...
Computing Atmospheric mass density...

Documentation

Showing up to 5 results
|